Weather History for Grand Marais Airport, MN

Change the Weather History Date:

Monday, May 20, 2013

  Actual Average Record
Temperature  
Mean Temperature 47 °F -  
Max Temperature 50 °F 56 °F 71 °F (1998)
Min Temperature 44 °F 36 °F 23 °F (2002)
Degree Days  
Heating Degree Days 18    
Moisture  
Dew Point 43 °F    
Average Humidity 88    
Maximum Humidity 93    
Minimum Humidity 82    
Precipitation  
Precipitation 0.78 in - - ()
Sea Level Pressure  
Sea Level Pressure 29.79 in    
Wind  
Wind Speed 22 mph (NE)    
Max Wind Speed 32 mph    
Max Gust Speed 44 mph    
Visibility 6 miles    
Events Rain , Thunderstorm    
Averages and records for this station are not official NWS values.
T = Trace of Precipitation, MM = Missing Value Source: NWS Daily Summary

Daily Weather History Graph

Daily Weather History Graph

Search for Another Location

Airport:

Trip Planner

Search our weather history database for the weather conditions in past years. The results will help you decide how hot, cold, wet, or windy it might be!

Date:

Astronomy

May. 20, 2013 Rise Set
Actual Time 5:17 AM CDT 8:39 PM CDT
Civil Twilight 4:39 AM CDT 9:17 PM CDT
Nautical Twilight 3:49 AM CDT 10:07 PM CDT
Astronomical Twilight 2:45 AM CDT 11:13 PM CDT
Moon 3:27 PM CDT (5/20) 2:34 AM CDT (5/20)
Length of Visible Light 16h 38m
Length of Day
15h 22m
Waxing Gibbous, 75% of the Moon is Illuminated
May 20
Waxing Gibbous
May 24
Full
May 31
Last Quarter
Jun 8
New
Jun 16
First Quarter

Hourly Weather History & Observations

Time (CDT) Temp. Windchill Dew Point Humidity Pressure Visibility Wind Dir Wind Speed Gust Speed Precip Events Conditions
12:13 AM 50.0 °F - 46.4 °F 87% 29.91 in 7.0 mi ENE 13.8 mph 19.6 mph 0.15 in Rain , Thunderstorm Heavy Thunderstorms and Rain
12:33 AM 50.0 °F - 46.4 °F 87% 29.90 in 7.0 mi NE 15.0 mph 25.3 mph 0.25 in Rain Rain
12:54 AM 50.0 °F - 46.4 °F 87% 29.89 in 10.0 mi NE 23.0 mph 31.1 mph 0.29 in Rain , Thunderstorm Rain
1:13 AM 48.2 °F - 44.6 °F 87% 29.86 in 7.0 mi NE 26.5 mph 34.5 mph 0.04 in Rain Rain
1:33 AM 50.0 °F - 46.4 °F 87% 29.87 in 10.0 mi ENE 21.9 mph 35.7 mph 0.05 in Rain Light Rain
1:53 AM 50.0 °F - 46.4 °F 87% 29.87 in 10.0 mi NE 23.0 mph 32.2 mph 0.06 in Rain Rain
2:13 AM 50.0 °F - 44.6 °F 82% 29.87 in 10.0 mi ENE 21.9 mph 34.5 mph N/A   Overcast
2:33 AM 48.2 °F - 44.6 °F 87% 29.86 in 10.0 mi NE 26.5 mph 31.1 mph N/A   Light Drizzle
3:14 AM 48.2 °F - 44.6 °F 87% 29.83 in 10.0 mi NE 21.9 mph 33.4 mph 0.01 in Rain Rain
3:33 AM 48.2 °F - 44.6 °F 87% 29.83 in 5.0 mi NE 27.6 mph 35.7 mph 0.04 in Rain Rain
3:53 AM 48.2 °F - 44.6 °F 87% 29.82 in 7.0 mi NE 19.6 mph 34.5 mph 0.09 in Rain Rain
4:13 AM 48.2 °F - 44.6 °F 87% 29.81 in 4.0 mi NE 29.9 mph 36.8 mph 0.08 in Rain Rain
4:34 AM 48.2 °F - 44.6 °F 87% 29.75 in 7.0 mi NE 26.5 mph 35.7 mph 0.11 in Rain Light Rain
4:53 AM 48.2 °F - 44.6 °F 87% 29.78 in 10.0 mi NE 24.2 mph 36.8 mph 0.12 in   Light Drizzle
5:13 AM 48.2 °F - 44.6 °F 87% 29.80 in 10.0 mi East 19.6 mph 29.9 mph N/A   Overcast
5:34 AM 48.2 °F - 44.6 °F 87% 29.78 in 10.0 mi NE 23.0 mph 32.2 mph N/A   Overcast
5:53 AM 48.2 °F - 44.6 °F 87% 29.75 in 5.0 mi NE 28.8 mph 39.1 mph N/A Rain Light Rain
6:13 AM 48.2 °F - 44.6 °F 87% 29.70 in 10.0 mi NE 32.2 mph 43.7 mph 0.01 in   Light Drizzle
6:34 AM 46.4 °F 37.7 °F 44.6 °F 93% 29.72 in 10.0 mi NE 26.5 mph 38.0 mph 0.01 in   Overcast
6:54 AM 46.4 °F 37.5 °F 44.6 °F 93% 29.75 in 10.0 mi NE 27.6 mph 38.0 mph 0.01 in   Overcast
7:14 AM 46.4 °F 38.1 °F 44.6 °F 93% 29.76 in 10.0 mi NE 24.2 mph 33.4 mph N/A   Overcast
7:33 AM 46.4 °F 38.1 °F 44.6 °F 93% 29.78 in 10.0 mi NE 24.2 mph 33.4 mph N/A   Overcast
7:53 AM 46.4 °F 37.9 °F 44.6 °F 93% 29.77 in 10.0 mi NE 25.3 mph 39.1 mph N/A   Overcast
8:13 AM 46.4 °F 37.2 °F 42.8 °F 87% 29.78 in 10.0 mi NE 29.9 mph 43.7 mph N/A   Overcast
8:33 AM 46.4 °F 37.7 °F 42.8 °F 87% 29.78 in 10.0 mi NE 26.5 mph 39.1 mph N/A   Overcast
9:13 AM 46.4 °F 37.2 °F 42.8 °F 87% 29.78 in 10.0 mi NE 29.9 mph 39.1 mph N/A   Overcast
9:33 AM 46.4 °F 38.1 °F 42.8 °F 87% 29.78 in 10.0 mi NE 24.2 mph 35.7 mph N/A   Overcast
9:54 AM 46.4 °F 38.5 °F 42.8 °F 87% 29.78 in 10.0 mi NE 21.9 mph 34.5 mph N/A   Overcast
10:34 AM 46.4 °F 38.5 °F 42.8 °F 87% 29.78 in 10.0 mi NE 21.9 mph 32.2 mph N/A   Overcast
10:53 AM 46.4 °F 38.3 °F 42.8 °F 87% 29.77 in 10.0 mi NE 23.0 mph 32.2 mph N/A   Overcast
11:14 AM 46.4 °F 38.3 °F 42.8 °F 87% 29.77 in 4.0 mi ENE 23.0 mph 33.4 mph N/A   Overcast
11:33 AM 46.4 °F 38.3 °F 42.8 °F 87% 29.78 in 1.5 mi NE 23.0 mph 29.9 mph N/A   Overcast
11:53 AM 44.6 °F 36.1 °F 42.8 °F 93% 29.77 in 1.0 mi NE 21.9 mph 32.2 mph N/A Rain Rain
12:13 PM 44.6 °F 36.6 °F 42.8 °F 93% 29.77 in 1.2 mi NE 19.6 mph 34.5 mph N/A Rain Light Rain
12:33 PM 44.6 °F 35.7 °F 42.8 °F 93% 29.78 in 1.5 mi NE 24.2 mph 32.2 mph N/A   Overcast
1:13 PM 44.6 °F 36.9 °F 42.8 °F 93% 29.78 in 0.2 mi NE 18.4 mph 40.3 mph N/A   Overcast
1:53 PM 44.6 °F 35.9 °F 42.8 °F 93% 29.77 in 2.5 mi NE 23.0 mph 33.4 mph 0.01 in   Light Drizzle
2:14 PM 44.6 °F 35.5 °F 42.8 °F 93% 29.78 in 2.5 mi NE 25.3 mph 31.1 mph 0.01 in   Overcast
2:33 PM 46.4 °F 37.9 °F 42.8 °F 87% 29.78 in 2.5 mi NNE 25.3 mph 34.5 mph 0.01 in Rain Rain
2:53 PM 46.4 °F 38.3 °F 42.8 °F 87% 29.78 in 2.0 mi NE 23.0 mph 35.7 mph 0.01 in   Light Drizzle
3:14 PM 46.4 °F 38.3 °F 42.8 °F 87% 29.77 in 2.0 mi NNE 23.0 mph 27.6 mph N/A Rain Light Rain
3:33 PM 46.4 °F 38.1 °F 42.8 °F 87% 29.77 in 1.8 mi NNE 24.2 mph 38.0 mph 0.01 in   Light Drizzle
3:54 PM 46.4 °F 37.7 °F 42.8 °F 87% 29.78 in 1.5 mi NE 26.5 mph 35.7 mph 0.01 in   Overcast
4:13 PM 46.4 °F 38.3 °F 42.8 °F 87% 29.78 in 1.5 mi NE 23.0 mph 33.4 mph N/A   Overcast
4:33 PM 46.4 °F 38.5 °F 42.8 °F 87% 29.78 in 1.5 mi NE 21.9 mph 34.5 mph N/A Rain Rain
4:53 PM 46.4 °F 38.3 °F 42.8 °F 87% 29.77 in 2.0 mi NE 23.0 mph 32.2 mph N/A   Overcast
5:13 PM 46.4 °F 38.3 °F 42.8 °F 87% 29.77 in 2.5 mi NE 23.0 mph 34.5 mph N/A   Overcast
5:33 PM 46.4 °F 37.5 °F 42.8 °F 87% 29.75 in 2.5 mi NE 27.6 mph 39.1 mph N/A   Overcast
5:53 PM 46.4 °F 37.4 °F 42.8 °F 87% 29.77 in 2.5 mi NE 28.8 mph 35.7 mph N/A   Overcast
6:14 PM 46.4 °F 38.5 °F 42.8 °F 87% 29.76 in 2.5 mi NE 21.9 mph 38.0 mph N/A   Overcast
6:33 PM 46.4 °F 38.3 °F 42.8 °F 87% 29.76 in 2.5 mi NE 23.0 mph 35.7 mph N/A   Overcast
6:54 PM 46.4 °F 38.3 °F 42.8 °F 87% 29.76 in 2.5 mi NE 23.0 mph 35.7 mph N/A   Overcast
7:13 PM 46.4 °F 38.5 °F 42.8 °F 87% 29.77 in 2.5 mi NE 21.9 mph 34.5 mph N/A   Overcast
7:33 PM 44.6 °F 36.4 °F 42.8 °F 93% 29.77 in 2.5 mi NE 20.7 mph 27.6 mph N/A   Overcast
7:54 PM 44.6 °F 36.6 °F 42.8 °F 93% 29.79 in 1.8 mi NE 19.6 mph 29.9 mph 0.08 in Rain Heavy Rain
8:13 PM 44.6 °F 36.4 °F 41.0 °F 87% 29.78 in 4.0 mi NE 20.7 mph 29.9 mph 0.03 in Rain Light Rain
8:33 PM 44.6 °F 37.2 °F 41.0 °F 87% 29.78 in 5.0 mi NE 17.3 mph 32.2 mph 0.07 in Rain Heavy Rain
9:13 PM 44.6 °F 35.9 °F 41.0 °F 87% 29.79 in 10.0 mi NE 23.0 mph 34.5 mph 0.01 in   Light Drizzle
9:33 PM 44.6 °F 35.3 °F 41.0 °F 87% 29.79 in 7.0 mi NE 26.5 mph 32.2 mph 0.01 in Rain Rain
9:54 PM 44.6 °F 36.4 °F 41.0 °F 87% 29.79 in 10.0 mi NE 20.7 mph 29.9 mph 0.03 in Rain Light Rain
10:13 PM 44.6 °F 36.9 °F 41.0 °F 87% 29.78 in 10.0 mi NE 18.4 mph 29.9 mph N/A   Overcast
10:33 PM 44.6 °F 36.1 °F 41.0 °F 87% 29.78 in 10.0 mi NE 21.9 mph 33.4 mph N/A   Overcast
10:54 PM 44.6 °F 37.2 °F 41.0 °F 87% 29.78 in 10.0 mi NE 17.3 mph 32.2 mph N/A   Overcast
11:13 PM 44.6 °F 35.9 °F 41.0 °F 87% 29.78 in 10.0 mi NE 23.0 mph 32.2 mph N/A   Overcast
11:33 PM 44.6 °F 36.1 °F 41.0 °F 87% 29.78 in 7.0 mi NE 21.9 mph 32.2 mph N/A   Overcast
11:53 PM 44.6 °F 35.7 °F 41.0 °F 87% 29.78 in 4.0 mi NE 24.2 mph 31.1 mph N/A   Overcast